Content
SEND FEEDBACK

Daily
Averages
Monthly
Summary
United States of America

ST. LOUIS, MISSOURI


Home > North America > United States > Missouri
Elevation: 535 feet     Latitude: 38 45N     Longitude: 090 22W

WEATHER
 
SELECT A DAY
Number of Records: 199,614;   Date Range: 1/1/95 - 10/19/14
 
SHARE

PRINT THIS DATA

[ ← Previous Day ]
WEATHER ALMANAC - FEBRUARY 20, 2013
[ Next Day → ]
[ °C ]   °F
Weather ElementAverageHighLow
Temperature22.3 °F26.1 °F (1:54 pm)18 °F (4:54 am)
Dewpoint9.9 °F12.2 °F (8:54 pm)7 °F (3:54 am)
Humidity59 %68 % (10:54 pm)51 % (12:54 pm)
Barometer30.37 in30.45 in (9:54 am)30.31 in (8:54 pm)
Wind Speed5 mph9.2 mph (3:54 pm)
Weather ElementAverage
Visibility10 mi
Wind DirectionSSE (142.6 °)

Weather ElementTotal
Precipitation---
Heating Degree Days43 (Base 65)
Averaged from 23 records on February 20, 2013
WEATHER CONDITIONS BREAKOUT
WIND DIRECTION BREAKOUT
WEATHER BY HOUR - FEBRUARY 20, 2013
[ °C ]   °F
Local TimeTemperatureDewpointHumidityBarometerVisibilityWind DirectionWind SpeedGust SpeedPrecipitationEventsConditions
1:54 AM21.0 °F9.0 °F60 %30.35 in10.0 miWest (280°)4.6 mphClear
2:54 AM19.9 °F8.1 °F60 %30.34 in10.0 miNNW (330°)4.6 mphClear
3:54 AM19.9 °F7.0 °F57 %30.34 in10.0 miNW (320°)5.8 mphClear
4:54 AM18.0 °F7.0 °F62 %30.37 in10.0 miNW (310°)4.6 mphClear
5:54 AM18.0 °F8.1 °F65 %30.38 in10.0 miNW (310°)3.5 mphClear
6:54 AM19.0 °F8.1 °F62 %30.39 in10.0 miNorth (360°)5.8 mphClear
7:54 AM19.9 °F9.0 °F62 %30.42 in10.0 miNorth (350°)5.8 mphMostly Cloudy
8:54 AM19.4 °F8.6 °F63 %30.41 in10.0 miNorth (10°)4.6 mphOvercast
9:54 AM21.9 °F9.0 °F58 %30.45 in10.0 miCalmOvercast
10:54 AM23.0 °F10.0 °F58 %30.45 in10.0 miVariable3.5 mphOvercast
11:54 AM24.1 °F10.0 °F55 %30.43 in10.0 miNorth (350°)3.5 mphClear
12:54 PM25.0 °F9.0 °F51 %30.43 in10.0 miCalmOvercast
1:54 PM26.1 °F10.0 °F51 %30.38 in10.0 miVariable5.8 mphOvercast
2:54 PM26.1 °F10.9 °F53 %30.38 in10.0 miEast (80°)3.5 mphOvercast
3:54 PM26.1 °F12.0 °F55 %30.35 in10.0 miENE (70°)9.2 mphOvercast
4:54 PM25.0 °F10.0 °F53 %30.34 in10.0 miENE (70°)9.2 mphMostly Cloudy
5:54 PM25.0 °F10.9 °F55 %30.34 in10.0 miENE (70°)8.1 mphMostly Cloudy
6:54 PM23.0 °F10.9 °F60 %30.34 in10.0 miENE (60°)6.9 mphMostly Cloudy
7:54 PM21.9 °F10.9 °F63 %30.35 in10.0 miEast (90°)3.5 mphPartly Cloudy
8:54 PM24.8 °F12.2 °F59 %30.31 in10.0 miENE (60°)6.9 mphOvercast
9:54 PM24.1 °F12.0 °F60 %30.35 in10.0 miEast (80°)9.2 mphOvercast
10:54 PM21.2 °F12.2 °F68 %30.31 in10.0 miEast (80°)6.9 mphScattered Clouds
11:54 PM21.0 °F12.0 °F68 %30.35 in10.0 miCalmClear
Hourly data recorded from KSUS, located miles away from St. Louis, Missouri







STORIES FROM OUR PARTNERS